TimePDT,TemperatureF,Dew PointF,Humidity,Sea Level PressureIn,VisibilityMPH,Wind Direction,Wind SpeedMPH,Gust SpeedMPH,PrecipitationIn,Events,Conditions,WindDirDegrees,DateUTC
12:53 AM,64.0,45.0,50,29.91,10.0,North,8.1,-,N/A,,Clear,350,2013-06-21 07:53:00
1:53 AM,63.0,45.0,52,29.90,10.0,NNW,8.1,-,N/A,,Clear,330,2013-06-21 08:53:00
2:53 AM,62.1,45.0,53,29.90,10.0,NNW,10.4,-,N/A,,Clear,330,2013-06-21 09:53:00
3:53 AM,61.0,46.0,58,29.89,10.0,NNW,6.9,-,N/A,,Clear,330,2013-06-21 10:53:00
4:53 AM,60.1,46.9,62,29.89,10.0,NNW,5.8,-,N/A,,Clear,340,2013-06-21 11:53:00
5:53 AM,59.0,46.0,62,29.91,10.0,NNW,9.2,-,N/A,,Clear,340,2013-06-21 12:53:00
6:53 AM,61.0,46.9,60,29.92,10.0,North,6.9,-,N/A,,Clear,350,2013-06-21 13:53:00
7:53 AM,64.9,48.0,54,29.93,10.0,NW,9.2,-,N/A,,Clear,320,2013-06-21 14:53:00
8:53 AM,69.1,48.9,49,29.93,10.0,WNW,13.8,-,N/A,,Clear,300,2013-06-21 15:53:00
9:53 AM,73.0,48.9,42,29.93,10.0,WNW,12.7,-,N/A,,Clear,290,2013-06-21 16:53:00
10:53 AM,78.1,48.9,36,29.93,10.0,NNW,11.5,-,N/A,,Clear,330,2013-06-21 17:53:00
11:53 AM,81.0,48.9,33,29.93,10.0,NW,13.8,21.9,N/A,,Clear,320,2013-06-21 18:53:00
12:53 PM,84.9,46.9,27,29.93,10.0,NW,13.8,-,N/A,,Clear,320,2013-06-21 19:53:00
1:53 PM,87.1,45.0,23,29.91,10.0,NW,13.8,-,N/A,,Clear,320,2013-06-21 20:53:00
2:53 PM,89.1,44.1,21,29.89,10.0,NW,17.3,21.9,N/A,,Clear,320,2013-06-21 21:53:00
3:53 PM,89.1,37.9,16,29.88,10.0,North,13.8,-,N/A,,Clear,350,2013-06-21 22:53:00
4:53 PM,89.1,36.0,15,29.87,10.0,NNW,17.3,-,N/A,,Clear,340,2013-06-21 23:53:00
5:53 PM,89.1,34.0,14,29.85,10.0,NNW,12.7,21.9,N/A,,Clear,330,2013-06-22 00:53:00
6:53 PM,87.1,37.0,17,29.85,10.0,NNW,13.8,-,N/A,,Clear,330,2013-06-22 01:53:00
7:53 PM,82.0,36.0,19,29.85,10.0,NW,13.8,-,N/A,,Clear,310,2013-06-22 02:53:00
8:53 PM,79.0,33.1,19,29.85,10.0,WNW,12.7,-,N/A,,Clear,300,2013-06-22 03:53:00
9:53 PM,75.0,32.0,21,29.86,10.0,WNW,10.4,-,N/A,,Clear,300,2013-06-22 04:53:00
10:53 PM,71.1,32.0,24,29.86,10.0,NW,8.1,-,N/A,,Clear,310,2013-06-22 05:53:00
11:53 PM,69.1,39.0,33,29.86,10.0,NNE,4.6,-,N/A,,Clear,30,2013-06-22 06:53:00